Location: Complexul Astronomic Baia Mare
(47.6577°N, 23.5639°E)
Time: 03:18:03
(UTC+03:00)

ISS - Pass Details

Date: 26 May 2017
Orbit: 401 x 408 km, 51.6° (Epoch: 25 June)

Event Time Altitude Azimuth Distance (km) Brightness Sun altitude
Rises 02:47:24 0° 293° (WNW) 2,337 0.1 -18.6°
Reaches altitude 10° 02:49:30 10° 295° (WNW) 1,473 -1.0 -18.5°
Maximum altitude 02:52:48 75° 21° (NNE) 426 -3.7 -18.3°
Drops below altitude 10° 02:56:05 10° 108° (ESE) 1,462 -1.0 -18.1°
Sets 02:58:09 0° 110° (ESE) 2,319 0.1 -18.0°
